CW9540 Weather Reports


Display with metric or nautical units.
time (UTC)temp
F
wind
direction
speed
MPH
gust
MPH
rain 1hr
in
rain 24hr
in
rain mn
in
humidity
%
barometer
mb
20260509181004 66 207 5.0 13.0 0.00 0.00 0.00 56 1003.4
20260509180503 66 187 6.0 12.0 0.00 0.00 0.00 54 1003.5
20260509180044 65 240 5.0 10.0 0.00 0.00 0.00 55 1004.4
20260509180003 66 187 5.0 10.0 0.00 0.00 0.00 56 1003.5
20260509175503 66 216 5.0 8.0 0.00 0.00 0.00 56 1003.5
20260509175003 65 215 4.0 16.0 0.00 0.00 0.00 56 1003.5
20260509174550 68 221 3.0 13.0 0.00 0.00 0.00 52 1004.4
20260509174503 69 220 2.0 13.0 0.00 0.00 0.00 52 1003.4
20260509173504 65 214 6.0 10.0 0.00 0.00 0.00 56 1003.6
20260509173047 65 204 4.0 10.0 0.00 0.00 0.00 56 1004.6
20260509173004 65 178 4.0 10.0 0.00 0.00 0.00 57 1003.7
20260509172503 64 191 4.0 10.0 0.00 0.00 0.00 56 1003.7
20260509172003 65 229 5.0 8.0 0.00 0.00 0.00 56 1003.7
20260509171547 65 245 4.0 12.0 0.00 0.00 0.00 58 1004.6
20260509171504 65 198 5.0 10.0 0.00 0.00 0.00 56 1003.6
20260509171003 66 191 5.0 12.0 0.00 0.00 0.00 58 1003.7
20260509170503 67 201 4.0 10.0 0.00 0.00 0.00 54 1003.7
20260509170045 66 139 3.0 12.0 0.00 0.00 0.00 56 1004.7
20260509170004 66 111 4.0 12.0 0.00 0.00 0.00 57 1003.9
20260509165503 64 221 4.0 8.0 0.00 0.00 0.00 62 1004.0
20260509165003 65 205 5.0 12.0 0.00 0.00 0.00 58 1004.1
20260509164546 65 117 4.0 11.0 0.00 0.00 0.00 55 1004.9
20260509164003 65 199 1.0 3.0 0.00 0.00 0.00 63 1004.1
20260509163503 64 213 3.0 8.0 0.00 0.00 0.00 60 1004.2
20260509163056 64 207 2.0 7.0 0.00 0.00 0.00 60 1005.2
20260509163004 64 117 2.0 5.0 0.00 0.00 0.00 60 1004.3
20260509162504 63 164 1.0 3.0 0.00 0.00 0.00 63 1004.4
20260509162003 62 207 3.0 7.0 0.00 0.00 0.00 63 1004.5
20260509161554 62 245 4.0 10.0 0.00 0.00 0.00 62 1005.5
20260509161503 63 230 5.0 10.0 0.00 0.00 0.00 62 1004.6
20260509160504 63 174 2.0 8.0 0.00 0.00 0.00 63 1004.6
20260509160051 63 211 3.0 9.0 0.00 0.00 0.00 60 1005.4
20260509160003 64 212 4.0 7.0 0.00 0.00 0.00 61 1004.8
20260509155504 63 248 3.0 6.0 0.00 0.00 0.00 63 1004.7
20260509155004 63 239 5.0 9.0 0.00 0.00 0.00 63 1004.7
20260509154558 63 252 3.0 7.0 0.00 0.00 0.00 63 1005.5
20260509154004 62 207 3.0 5.0 0.00 0.00 0.00 65 1004.8
20260509153503 61 118 2.0 6.0 0.00 0.00 0.00 65 1004.8
20260509153055 61 212 2.0 9.0 0.00 0.00 0.00 64 1005.6
20260509152504 61 226 5.0 9.0 0.00 0.00 0.00 65 1004.9
20260509151552 61 236 3.0 7.0 0.00 0.00 0.00 66 1005.8
20260509150504 61 164 3.0 6.0 0.00 0.00 0.00 66 1005.1
20260509150050 60 178 2.0 8.0 0.00 0.00 0.00 67 1005.9
20260509150003 60 225 2.0 5.0 0.00 0.00 0.00 68 1005.0
20260509145504 60 254 3.0 8.0 0.00 0.00 0.00 67 1005.0
20260509145004 61 208 5.0 8.0 0.00 0.00 0.00 66 1005.1
20260509144552 60 0 3.0 7.0 0.00 0.00 0.00 66 1006.0
20260509144503 61 218 4.0 6.0 0.00 0.00 0.00 68 1005.2
20260509144003 60 198 2.0 5.0 0.00 0.00 0.00 68 1005.3
20260509143504 60 245 4.0 7.0 0.00 0.00 0.00 68 1005.2
20260509143052 60 234 3.0 8.0 0.00 0.00 0.00 68 1006.1
20260509143004 60 215 3.0 8.0 0.00 0.00 0.00 69 1005.4
20260509142503 59 203 1.0 6.0 0.00 0.00 0.00 70 1005.4
20260509141546 58 218 1.0 5.0 0.00 0.00 0.00 70 1006.1
20260509141003 59 234 2.0 5.0 0.00 0.00 0.00 71 1005.4
20260509140057 58 238 1.0 4.0 0.00 0.00 0.00 69 1006.3
20260509140004 59 245 2.0 3.0 0.00 0.00 0.00 69 1005.5
20260509135004 57 80 0.0 3.0 0.00 0.00 0.00 73 1005.7
20260509134558 56 161 1.0 3.0 0.00 0.01 0.00 72 1006.6
20260509134504 56 121 1.0 3.0 0.00 0.00 0.00 71 1005.9
20260509134003 56 173 1.0 3.0 0.00 0.00 0.00 72 1006.0
20260509133504 56 252 2.0 3.0 0.00 0.00 0.00 71 1006.1
20260509133046 55 0 0.0 2.0 0.00 0.01 0.00 72 1006.9
20260509132504 54 249 0.0 1.0 0.00 0.00 0.00 74 1006.1
20260509132004 54 212 1.0 1.0 0.00 0.00 0.00 73 1006.1
20260509131549 53 0 1.0 2.0 0.00 0.01 0.00 73 1007.0
20260509131004 52 26 0.0 1.0 0.00 0.00 0.00 75 1006.2
20260509130504 52 146 1.0 2.0 0.00 0.01 0.00 76 1006.3
20260509130046 51 0 0.0 2.0 0.00 0.01 0.00 75 1007.2
20260509130004 51 333 1.0 2.0 0.00 0.01 0.00 76 1006.4
20260509125503 51 40 0.0 1.0 0.00 0.01 0.00 78 1006.4
20260509124544 49 0 0.0 1.0 0.00 0.04 0.00 81 1007.3
20260509124504 50 29 0.0 1.0 0.00 0.01 0.00 82 1006.4
20260509124004 49 36 0.0 1.0 0.00 0.01 0.00 81 1006.4
20260509123503 48 168 1.0 1.0 0.00 0.02 0.00 83 1006.4
20260509123052 47 0 0.0 2.0 0.00 0.04 0.00 84 1007.3
20260509123004 48 71 0.0 2.0 0.00 0.02 0.00 85 1006.4
20260509122004 46 326 0.0 1.0 0.00 0.03 0.00 88 1006.5
20260509121547 45 0 0.0 2.0 0.00 0.04 0.00 88 1007.3
20260509121504 45 295 1.0 2.0 0.00 0.03 0.00 89 1006.5
20260509121004 45 26 1.0 2.0 0.00 0.03 0.00 90 1006.6
20260509120503 44 333 1.0 2.0 0.00 0.04 0.00 90 1006.6
20260509120054 43 135 0.0 2.0 0.00 0.04 0.00 90 1007.4
20260509120003 43 261 0.0 1.0 0.00 0.04 0.00 91 1006.6
20260509114548 42 0 0.0 2.0 0.00 0.04 0.00 91 1007.4
20260509114503 42 339 0.0 2.0 0.00 0.04 0.00 91 1006.7
20260509114003 42 359 0.0 1.0 0.00 0.04 0.00 92 1006.7
20260509113503 42 7 0.0 1.0 0.00 0.04 0.00 92 1006.6
20260509113049 41 0 0.0 2.0 0.00 0.04 0.00 91 1007.4
20260509113004 41 35 0.0 1.0 0.00 0.04 0.00 92 1006.7
20260509112504 41 316 0.0 1.0 0.00 0.04 0.00 92 1006.6
20260509112003 41 66 0.0 1.0 0.00 0.04 0.00 92 1006.6
20260509111551 40 0 0.0 2.0 0.00 0.04 0.00 91 1007.4
20260509111004 40 188 0.0 1.0 0.00 0.04 0.00 92 1006.6
20260509110504 40 30 0.0 1.0 0.00 0.04 0.00 92 1006.7
20260509110049 39 0 0.0 1.0 0.00 0.04 0.00 91 1007.5
20260509110004 40 233 0.0 1.0 0.00 0.04 0.00 92 1006.6
20260509105003 39 351 0.0 1.0 0.00 0.04 0.00 92 1006.5
20260509104548 39 0 0.0 1.0 0.00 0.04 0.00 91 1007.3
20260509104503 39 227 0.0 1.0 0.00 0.04 0.00 92 1006.5
20260509104004 39 187 0.0 1.0 0.00 0.04 0.00 91 1006.5
20260509103504 39 57 0.0 1.0 0.00 0.04 0.00 91 1006.6
20260509103051 38 152 0.0 1.0 0.00 0.04 0.00 91 1007.3
20260509103003 39 167 0.0 1.0 0.00 0.04 0.00 91 1006.5
20260509102503 39 141 0.0 1.0 0.00 0.04 0.00 91 1006.6
20260509101555 38 0 0.0 1.0 0.00 0.04 0.00 91 1007.3
20260509101504 39 112 0.0 1.0 0.00 0.04 0.00 91 1006.5
20260509101003 39 184 0.0 1.0 0.00 0.04 0.00 91 1006.5
20260509100503 39 296 0.0 1.0 0.00 0.04 0.00 91 1006.5
20260509100049 38 0 0.0 1.0 0.00 0.04 0.00 91 1007.3
20260509095504 38 194 0.0 1.0 0.00 0.04 0.00 91 1006.5
20260509095003 38 96 0.0 1.0 0.00 0.04 0.00 91 1006.5
20260509094545 38 0 0.0 1.0 0.00 0.04 0.00 90 1007.4
20260509094504 38 106 0.0 1.0 0.00 0.04 0.00 91 1006.6
20260509093503 38 46 0.0 1.0 0.00 0.04 0.00 90 1006.6
20260509093056 37 0 0.0 1.0 0.00 0.04 0.00 90 1007.4
20260509093004 38 31 0.0 1.0 0.00 0.04 0.00 90 1006.6
20260509092504 38 28 0.0 1.0 0.00 0.04 0.00 90 1006.6
20260509091548 37 0 0.0 2.0 0.00 0.04 0.00 90 1007.4
20260509091503 38 53 0.0 2.0 0.00 0.04 0.00 90 1006.6
20260509091003 38 215 1.0 1.0 0.00 0.04 0.00 90 1006.6
20260509090503 38 76 0.0 1.0 0.00 0.04 0.00 91 1006.6
20260509090051 38 197 0.0 2.0 0.00 0.04 0.00 90 1007.5
20260509085003 38 214 0.0 1.0 0.00 0.04 0.00 91 1006.7
20260509084554 38 0 0.0 1.0 0.00 0.04 0.00 90 1007.5
20260509084504 38 313 1.0 1.0 0.00 0.04 0.00 91 1006.7
20260509084004 38 228 1.0 1.0 0.00 0.04 0.00 91 1006.7
20260509083504 38 3 0.0 1.0 0.00 0.04 0.00 91 1006.7
20260509083051 38 0 0.0 2.0 0.00 0.04 0.00 90 1007.6
20260509083004 38 118 0.0 1.0 0.00 0.04 0.00 90 1006.9
20260509082504 38 81 0.0 2.0 0.00 0.04 0.00 91 1007.0
20260509082003 38 211 1.0 2.0 0.00 0.04 0.00 91 1007.1
20260509081548 38 0 0.0 2.0 0.00 0.04 0.00 90 1007.8
20260509081504 38 102 0.0 1.0 0.00 0.04 0.00 91 1007.1
20260509080504 38 209 0.0 2.0 0.00 0.04 0.00 91 1007.2
20260509080053 37 0 0.0 2.0 0.00 0.04 0.00 90 1008.0
20260509080004 38 229 0.0 2.0 0.00 0.04 0.00 90 1007.2
20260509075503 38 225 1.0 1.0 0.00 0.04 0.00 90 1007.1
20260509075004 38 185 0.0 1.0 0.00 0.04 0.00 90 1007.2
20260509074544 37 0 0.0 1.0 0.00 0.04 0.00 89 1008.0
20260509074504 38 37 0.0 0.0 0.00 0.04 0.00 90 1007.2
20260509074003 38 64 0.0 1.0 0.00 0.04 0.00 90 1007.2
20260509073504 38 46 0.0 0.0 0.00 0.04 0.00 89 1007.3
20260509073157 37 0 0.0 1.0 0.00 0.04 0.00 89 1008.1
20260509073003 38 322 0.0 1.0 0.00 0.04 0.00 89 1007.4
20260509072503 38 179 0.0 1.0 0.00 0.04 0.00 89 1007.4
20260509071549 37 0 0.0 1.0 0.00 0.04 0.00 89 1008.3
20260509071504 38 33 0.0 1.0 0.00 0.04 0.00 89 1007.5
20260509071004 38 129 0.0 0.0 0.00 0.04 0.00 89 1007.5
20260509070503 38 63 0.0 1.0 0.00 0.04 0.00 89 1007.5
20260509070136 38 0 0.0 1.0 0.00 0.04 0.00 88 1008.4
20260509070004 38 163 1.0 1.0 0.00 0.04 0.00 89 1007.6
20260509065504 38 52 0.0 1.0 0.00 0.04 0.00 89 1007.7
20260509064612 38 0 0.0 1.0 0.00 0.04 0.00 89 1008.6
20260509064504 39 105 1.0 1.0 0.00 0.04 0.00 89 1007.8
20260509064003 39 98 1.0 1.0 0.00 0.04 0.00 89 1007.8
20260509063503 39 108 0.0 1.0 0.00 0.04 0.00 89 1007.9
20260509063058 38 0 0.0 2.0 0.00 0.04 0.00 88 1008.8
20260509063004 39 127 0.0 1.0 0.00 0.04 0.00 89 1008.0
20260509062503 39 142 0.0 2.0 0.00 0.04 0.00 88 1008.1
20260509062004 39 202 1.0 2.0 0.00 0.04 0.00 89 1008.2
20260509061551 39 223 0.0 1.0 0.00 0.04 0.00 88 1008.9
20260509060054 39 46 0.0 1.0 0.00 0.04 0.00 88 1009.1
20260509060004 39 31 0.0 1.0 0.00 0.04 0.00 88 1008.3
20260509055504 39 89 0.0 1.0 0.00 0.04 0.00 88 1008.3
20260509055003 39 88 0.0 0.0 0.00 0.04 0.00 88 1008.4
20260509054553 39 0 0.0 1.0 0.00 0.04 0.00 88 1009.1
20260509054504 40 50 0.0 1.0 0.00 0.04 0.00 88 1008.4
20260509054003 40 56 0.0 1.0 0.00 0.04 0.00 88 1008.5
20260509053504 40 16 0.0 1.0 0.00 0.04 0.00 88 1008.5
20260509053058 39 0 0.0 1.0 0.00 0.04 0.00 88 1009.4
20260509053004 40 30 0.0 1.0 0.00 0.04 0.00 88 1008.5
20260509052503 40 50 0.0 1.0 0.00 0.04 0.00 88 1008.6
20260509051548 40 0 0.0 1.0 0.00 0.04 0.00 88 1009.4
20260509051003 40 184 0.0 1.0 0.00 0.04 0.00 89 1008.6
20260509050504 40 73 0.0 1.0 0.00 0.04 0.00 88 1008.6
20260509050051 39 0 0.0 2.0 0.00 0.04 0.00 88 1009.6
20260509050003 40 204 1.0 1.0 0.00 0.04 0.00 88 1008.7
20260509045504 40 179 1.0 2.0 0.00 0.04 0.00 88 1008.7
20260509045004 40 197 1.0 1.0 0.00 0.04 0.00 88 1008.8
20260509044549 39 241 0.0 1.0 0.00 0.05 0.00 87 1009.7
20260509044504 40 138 0.0 1.0 0.00 0.04 0.00 88 1008.7
20260509043504 40 68 0.0 1.0 0.00 0.04 0.00 87 1008.9
20260509043045 40 0 0.0 1.0 0.00 0.05 0.00 86 1009.9
20260509043004 40 157 0.0 1.0 0.00 0.04 0.00 86 1009.0
20260509042004 40 156 0.0 1.0 0.00 0.04 0.00 85 1009.1
20260509041548 40 0 0.0 1.0 0.00 0.05 0.00 84 1009.9
20260509041506 40 101 0.0 0.0 0.00 0.04 0.00 85 1009.0
20260509040504 41 76 0.0 1.0 0.00 0.05 0.00 84 1009.0
20260509040052 40 0 0.0 1.0 0.00 0.05 0.00 84 1010.0
20260509040004 41 79 0.0 0.0 0.00 0.05 0.00 84 1009.0
20260509035503 41 49 0.0 1.0 0.00 0.05 0.05 84 1009.0
20260509035003 41 55 0.0 1.0 0.00 0.05 0.05 84 1009.0
20260509034549 41 0 0.0 1.0 0.00 0.05 0.05 83 1010.0
20260509034504 41 152 0.0 1.0 0.00 0.05 0.05 83 1009.0
20260509034003 41 40 0.0 1.0 0.00 0.05 0.05 83 1009.0
20260509033503 42 58 0.0 0.0 0.00 0.05 0.05 82 1009.1
20260509033045 41 0 0.0 1.0 0.00 0.05 0.05 81 1010.0
20260509033004 42 231 1.0 1.0 0.00 0.05 0.05 82 1009.1
20260509032004 42 10 0.0 1.0 0.00 0.05 0.05 81 1009.1
20260509031545 42 0 0.0 1.0 0.00 0.05 0.05 81 1010.1
20260509031504 42 325 0.0 1.0 0.00 0.05 0.05 81 1009.1
20260509031004 42 228 0.0 1.0 0.00 0.05 0.05 81 1009.2
20260509030504 43 99 0.0 1.0 0.00 0.05 0.05 81 1009.2
20260509030048 42 0 0.0 1.0 0.00 0.05 0.05 80 1010.1
20260509030003 43 39 1.0 1.0 0.00 0.05 0.05 81 1009.2
20260509025003 43 267 0.0 1.0 0.00 0.05 0.05 79 1009.2
20260509024545 43 0 0.0 1.0 0.00 0.05 0.05 78 1010.1
20260509024504 44 0 0.0 1.0 0.00 0.05 0.05 79 1009.2
20260509024003 44 255 0.0 1.0 0.00 0.05 0.05 78 1009.2
20260509023504 44 27 0.0 0.0 0.00 0.05 0.05 78 1009.3
20260509023046 44 0 0.0 1.0 0.00 0.05 0.05 77 1010.2
20260509022503 45 310 0.0 1.0 0.00 0.05 0.05 77 1009.3
20260509022003 45 3 0.0 0.0 0.00 0.05 0.05 76 1009.2
20260509021553 44 0 0.0 1.0 0.00 0.05 0.05 75 1010.2
20260509021004 45 180 0.0 1.0 0.00 0.05 0.05 74 1009.2
20260509020503 46 192 0.0 1.0 0.00 0.05 0.05 74 1009.3
20260509020053 45 0 0.0 1.0 0.00 0.05 0.05 73 1010.2
20260509015504 46 302 0.0 1.0 0.00 0.05 0.05 73 1009.3
20260509015003 47 311 0.0 1.0 0.00 0.05 0.05 72 1009.2
20260509014550 46 0 0.0 1.0 0.00 0.05 0.05 70 1010.1
20260509014503 47 339 0.0 1.0 0.00 0.05 0.05 70 1009.2
20260509014004 47 181 0.0 1.0 0.00 0.05 0.05 69 1009.2
20260509013503 48 154 0.0 1.0 0.00 0.05 0.05 68 1009.2
20260509013053 47 0 0.0 1.0 0.00 0.05 0.05 68 1010.1
20260509013003 48 69 0.0 1.0 0.00 0.05 0.05 68 1009.1
20260509012504 48 346 0.0 1.0 0.00 0.05 0.05 68 1009.1
20260509011550 48 0 0.0 1.0 0.00 0.05 0.05 66 1010.0
20260509011504 49 299 0.0 0.0 0.00 0.05 0.05 67 1009.0
20260509011003 50 24 0.0 1.0 0.00 0.05 0.05 66 1009.0
20260509010504 50 322 0.0 1.0 0.00 0.05 0.05 65 1008.9
20260509010051 50 0 0.0 1.0 0.00 0.05 0.05 62 1009.7
20260509005503 51 64 0.0 0.0 0.00 0.05 0.05 61 1008.6
20260509005004 51 49 0.0 1.0 0.00 0.05 0.05 59 1008.6
20260509004546 51 0 0.0 2.0 0.00 0.05 0.05 58 1009.4
20260509004504 52 86 0.0 1.0 0.00 0.05 0.05 58 1008.6
20260509004004 52 122 0.0 1.0 0.00 0.05 0.05 57 1008.5
20260509003050 53 117 0.0 1.0 0.00 0.05 0.05 54 1009.4
20260509002004 54 34 0.0 1.0 0.00 0.05 0.05 52 1008.5
20260509001548 54 0 0.0 1.0 0.00 0.05 0.05 50 1009.3
20260509001504 55 73 0.0 1.0 0.00 0.05 0.05 50 1008.5
20260509001004 55 62 0.0 1.0 0.00 0.05 0.05 50 1008.5
20260509000503 55 101 0.0 1.0 0.00 0.05 0.05 49 1008.4
20260509000049 55 0 0.0 1.0 0.00 0.05 0.05 49 1009.2
20260508235504 56 35 0.0 1.0 0.00 0.05 0.05 49 1008.5
20260508235004 56 357 0.0 1.0 0.00 0.05 0.05 48 1008.5
20260508234547 56 0 0.0 2.0 0.00 0.05 0.05 49 1009.2
20260508234504 56 41 0.0 1.0 0.00 0.05 0.05 48 1008.4
20260508234004 56 39 0.0 2.0 0.00 0.05 0.05 49 1008.3
20260508233503 57 38 1.0 2.0 0.00 0.05 0.05 47 1008.2
20260508233104 57 20 0.0 2.0 0.00 0.05 0.05 45 1009.0
20260508233003 57 20 0.0 2.0 0.00 0.05 0.05 46 1008.1
20260508231557 57 0 0.0 4.0 0.00 0.05 0.05 43 1008.9
20260508231503 58 16 1.0 2.0 0.00 0.05 0.05 44 1008.1
20260508231004 58 19 2.0 3.0 0.00 0.05 0.05 41 1008.0
20260508230503 59 6 1.0 3.0 0.00 0.05 0.05 40 1008.0
20260508230055 59 63 0.0 2.0 0.00 0.05 0.05 38 1008.9
20260508230003 59 29 0.0 2.0 0.00 0.05 0.05 37 1008.1
20260508225504 59 106 1.0 2.0 0.00 0.05 0.05 39 1008.2
20260508225004 60 57 1.0 2.0 0.00 0.05 0.05 37 1008.1
20260508224546 60 53 1.0 2.0 0.00 0.05 0.05 37 1009.0
20260508224504 60 1 1.0 2.0 0.00 0.05 0.05 38 1008.2
20260508223503 58 8 1.0 3.0 0.00 0.05 0.05 38 1008.1
20260508223051 58 253 1.0 4.0 0.00 0.05 0.05 36 1008.9
20260508222503 60 355 2.0 3.0 0.00 0.05 0.05 34 1008.1
20260508222003 60 171 1.0 3.0 0.00 0.05 0.05 36 1008.1
20260508221550 59 39 1.0 3.0 0.00 0.05 0.05 35 1008.9
20260508221004 59 41 2.0 3.0 0.00 0.05 0.05 34 1008.2
20260508220048 59 1 1.0 6.0 0.00 0.05 0.05 35 1009.0
20260508220004 60 329 2.0 3.0 0.00 0.05 0.05 35 1008.2
20260508215503 59 317 2.0 5.0 0.00 0.05 0.05 35 1008.2
20260508214551 62 1 1.0 7.0 0.00 0.05 0.05 34 1009.1
20260508214503 62 310 1.0 5.0 0.00 0.05 0.05 34 1008.2
20260508213504 61 238 2.0 3.0 0.00 0.05 0.05 34 1008.2
20260508213055 64 9 1.0 3.0 0.00 0.05 0.05 31 1009.1
20260508213003 65 108 2.0 3.0 0.00 0.05 0.05 33 1008.3
20260508212504 61 109 2.0 3.0 0.00 0.05 0.05 34 1008.3
20260508212003 65 345 1.0 3.0 0.00 0.05 0.05 33 1008.3
20260508211556 63 314 1.0 5.0 0.00 0.05 0.05 36 1009.3
20260508211504 62 75 2.0 3.0 0.00 0.05 0.05 34 1008.3
20260508211004 59 194 2.0 5.0 0.00 0.05 0.05 37 1008.3
20260508210503 59 308 2.0 6.0 0.00 0.05 0.05 37 1008.4
20260508210050 60 9 2.0 7.0 0.00 0.05 0.05 37 1009.2
20260508210003 60 350 2.0 3.0 0.00 0.05 0.05 38 1008.3
20260508205504 59 8 4.0 7.0 0.00 0.05 0.05 38 1008.4
20260508205004 61 12 2.0 3.0 0.00 0.05 0.05 34 1008.4
20260508204550 62 0 1.0 3.0 0.00 0.05 0.05 34 1009.4
20260508204504 63 355 1.0 3.0 0.00 0.05 0.05 36 1008.4
20260508204004 62 72 1.0 3.0 0.00 0.05 0.05 39 1008.4
20260508203504 57 358 2.0 6.0 0.00 0.05 0.05 42 1008.6
20260508203056 58 343 2.0 6.0 0.00 0.05 0.05 38 1009.5
20260508203004 58 359 2.0 3.0 0.00 0.05 0.05 38 1008.6
20260508202503 58 264 3.0 5.0 0.00 0.05 0.05 36 1008.7
20260508202003 59 276 2.0 6.0 0.00 0.05 0.05 37 1008.8
20260508201548 59 240 4.0 10.0 0.00 0.05 0.05 35 1009.7
20260508201503 60 225 6.0 10.0 0.00 0.05 0.05 34 1008.9
20260508201004 60 174 5.0 8.0 0.00 0.05 0.05 36 1008.9
20260508200503 58 229 3.0 9.0 0.00 0.05 0.05 39 1008.9
20260508200103 57 194 4.0 9.0 0.00 0.05 0.05 38 1009.7
20260508200003 58 204 5.0 8.0 0.00 0.05 0.05 37 1008.9
20260508195004 58 210 3.0 8.0 0.00 0.05 0.05 39 1009.0
20260508194550 58 243 3.0 7.0 0.00 0.05 0.05 39 1009.9
20260508194504 59 239 4.0 7.0 0.00 0.05 0.05 37 1009.0
20260508194003 58 322 2.0 3.0 0.00 0.05 0.05 38 1009.2
20260508193503 60 320 2.0 5.0 0.00 0.05 0.05 37 1009.3
20260508193048 58 354 4.0 11.0 0.00 0.05 0.05 39 1010.1
20260508193003 58 342 3.0 12.0 0.00 0.05 0.05 39 1009.5
20260508192003 58 166 3.0 8.0 0.00 0.05 0.05 39 1009.5
20260508191551 57 318 4.0 8.0 0.00 0.05 0.05 41 1010.2
20260508191004 60 185 2.0 6.0 0.00 0.05 0.05 37 1009.6
20260508190051 60 28 1.0 7.0 0.00 0.05 0.05 38 1010.2
20260508190004 59 118 2.0 3.0 0.00 0.05 0.05 39 1009.6
20260508185503 58 351 2.0 7.0 0.00 0.05 0.05 43 1009.7
20260508184553 60 283 2.0 7.0 0.00 0.05 0.05 40 1010.4
20260508184503 60 271 2.0 7.0 0.00 0.05 0.05 45 1009.6
20260508184004 58 315 1.0 3.0 0.00 0.05 0.05 42 1009.6
20260508183504 57 327 2.0 5.0 0.00 0.05 0.05 49 1009.7
20260508183051 56 322 2.0 9.0 0.00 0.05 0.05 44 1010.4
20260508183003 56 276 3.0 9.0 0.00 0.05 0.05 47 1009.7
20260508182004 62 256 2.0 5.0 0.00 0.05 0.05 42 1009.7
20260508181552 58 152 1.0 9.0 0.00 0.05 0.05 45 1010.5
20260508181503 58 192 2.0 7.0 0.00 0.05 0.05 46 1009.8